Regional Weather Roundup
Issued by NWS Goodland, KS

Home | Current Version | Previous Version | Text Only | Print | Product List | Glossary Off
Versions: 1 2 3 4 5 6 7 8 9 10 11 12 13 14 15 16 17 18 19 20 21 22 23 24 25 26 27 28 29 30 31 32 33 34 35 36 37 38 39 40 41 42 43 44 45 46 47 48 49 50

000
ASUS43 KGLD 242108
RWRGLD

GOODLAND FORECAST AREA HOURLY WEATHER ROUNDUP
NATIONAL WEATHER SERVICE GOODLAND KS
300 PM MDT SUN MAY 24 2015

...OFFICIAL OBSERVATIONS...

CITY           SKY/WX    TMP DP  RH WIND       PRES   REMARKS
GOODLAND KS    MOSUNNY   69  52  54 VRB7      29.80F
HILL CITY KS   CLOUDY    68  58  70 S7        29.82F
IMPERIAL NEB   MOSUNNY   71  51  49 VRB5      29.79F
MCCOOK NEB     CLOUDY    69  57  65 NE10G22   29.79F
AKRON CO       TSTM      54  48  80 W29G37    29.82R
BURLINGTON CO  MOSUNNY   69  53  56 SE13      29.80F
LIMON CO       LGT RAIN  49  44  83 NW15      29.86F
$$

...UNOFFICIAL OBSERVATIONS...

CITY           SKY/WX    TMP DP  RH WIND       PRES   REMARKS
COLBY KS       PTSUNNY   72  57  60 SE12      29.81F
GOVE KS          N/A     68  32  26 MISG        N/A
LENORA KS        N/A     67  32  27 MISG        N/A
NORTON KS      CLOUDY    68  57  68 E8        29.81
SHARON SPRINGS   N/A     71  61  71 MISG        N/A
KIT CARSON CO    N/A     68  53  57 MISG        N/A
$$


USA.gov is the U.S. government's official web portal to all federal, state and local government web resources and services.